TimeAKDT,TemperatureF,Dew PointF,Humidity,Sea Level PressureIn,VisibilityMPH,Wind Direction,Wind SpeedMPH,Gust SpeedMPH,PrecipitationIn,Events,Conditions,WindDirDegrees,DateUTC
12:53 AM,-6.0,-11.9,75,30.65,10.0,WSW,15.0,-,N/A,,Clear,250,2013-03-11 08:53:00
1:53 AM,-7.1,-13.0,75,30.67,10.0,WSW,9.2,-,N/A,,Clear,240,2013-03-11 09:53:00
2:53 AM,-11.0,-17.0,75,30.69,10.0,South,6.9,-,N/A,,Clear,190,2013-03-11 10:53:00
3:53 AM,-9.0,-15.0,75,30.70,10.0,South,5.8,-,N/A,,Clear,180,2013-03-11 11:53:00
4:53 AM,-9.9,-15.0,78,30.71,10.0,WSW,6.9,-,N/A,,Clear,240,2013-03-11 12:53:00
5:53 AM,-11.9,-17.0,78,30.73,10.0,SSW,5.8,-,N/A,,Clear,210,2013-03-11 13:53:00
6:53 AM,-17.0,-22.0,78,30.74,10.0,SSW,6.9,-,N/A,,Clear,200,2013-03-11 14:53:00
7:53 AM,-17.0,-22.0,78,30.74,10.0,SSW,4.6,-,N/A,,Clear,210,2013-03-11 15:53:00
8:53 AM,-17.0,-22.0,78,30.75,10.0,SW,4.6,-,N/A,,Clear,230,2013-03-11 16:53:00
9:53 AM,-17.0,-22.0,78,30.76,10.0,Calm,Calm,-,N/A,,Clear,0,2013-03-11 17:53:00
10:53 AM,-16.1,-20.9,79,30.77,10.0,SW,3.5,-,N/A,,Clear,230,2013-03-11 18:53:00
11:53 AM,-13.0,-18.0,78,30.76,10.0,Calm,Calm,-,N/A,,Clear,0,2013-03-11 19:53:00
12:53 PM,-11.0,-17.0,75,30.77,10.0,SSW,3.5,-,N/A,,Clear,200,2013-03-11 20:53:00
1:53 PM,-7.1,-11.9,79,30.77,10.0,Calm,Calm,-,N/A,,Clear,0,2013-03-11 21:53:00
2:53 PM,-5.1,-11.9,72,30.76,10.0,Calm,Calm,-,N/A,,Clear,0,2013-03-11 22:53:00
3:53 PM,-0.0,-8.0,69,30.77,10.0,Calm,Calm,-,N/A,,Clear,0,2013-03-11 23:53:00
4:53 PM,-0.9,-8.0,72,30.77,10.0,NE,3.5,-,0.00,,Clear,40,2013-03-12 00:53:00
5:53 PM,-0.9,-9.0,69,30.77,10.0,East,4.6,-,N/A,,Clear,90,2013-03-12 01:53:00
6:53 PM,-2.0,-9.9,69,30.76,10.0,ESE,3.5,-,N/A,,Clear,120,2013-03-12 02:53:00
7:53 PM,-2.9,-9.9,72,30.75,10.0,Calm,Calm,-,N/A,,Clear,0,2013-03-12 03:53:00
8:53 PM,-8.0,-13.0,79,30.75,10.0,SW,3.5,-,N/A,,Clear,220,2013-03-12 04:53:00
10:53 PM,-11.0,-17.0,75,30.74,10.0,Calm,Calm,-,N/A,,Clear,0,2013-03-12 06:53:00
11:53 PM,-11.0,-17.0,75,30.74,10.0,Calm,Calm,-,N/A,,Clear,0,2013-03-12 07:53:00